Location: Unspecified
(54.1780°N, 0.0000°E)
Time: 18:25:36
(UTC+00:00)

Transit 2A - Pass Details

Date: 19 June 2019
Orbit: 594 x 965 km, 66.7° (Epoch: 16 July)

Event Time Altitude Azimuth Distance (km) Brightness Sun altitude
Rises 05:37:21 0° 294° (WNW) 3,632 9.1 15.4°
Reaches altitude 10° 05:40:29 10° 307° (NW) 2,656 8.5 15.9°
Maximum altitude 05:45:29 25° 1° (N) 1,750 8.2 16.6°
Drops below altitude 10° 05:50:13 10° 56° (NE) 2,490 10.4 17.2°
Sets 05:53:03 0° 70° (ENE) 3,360 11.1 17.6°
